Location: Arlington
(40.6323°N, 74.1651°W)
Time: 10:46:36
(UTC+00:00)

Cosmos 1933 Rocket - Pass Details

Date: 22 November 2019
Orbit: 606 x 630 km, 82.5° (Epoch: 14 December)

Event Time Altitude Azimuth Distance (km) Brightness Sun altitude
Rises 23:14:29 0° 348° (NNW) 2,875 7.0 -18.9°
Reaches altitude 10° 23:16:44 10° 345° (NNW) 1,968 6.2 -19.3°
Maximum altitude 23:21:00 60° 266° (W) 704 4.1 -20.1°
Drops below altitude 10° 23:25:17 10° 186° (S) 1,964 6.3 -20.9°
Sets 23:27:31 0° 183° (S) 2,868 7.1 -21.3°
